Location: Unspecified
(0.0000°N, 0.0000°E)
Time: 10:10:13
(UTC+00:00)

Vanguard 3 - Pass Details

Date: 16 October 2022
Orbit: 509 x 3255 km, 33.3° (Epoch: 29 November)

Event Time Altitude Azimuth Distance (km) Brightness Sun altitude
Rises 22:09:52 0° 226° (SW) 7,221 12.3 -64.5°
Reaches altitude 10° 22:15:17 10° 220° (SW) 6,118 11.8 -65.8°
Enters shadow 22:23:58 30° 205° (SSW) 4,341 10.8 -67.7°
